When you browse on this site, cookies collect data to enhance your experience and personalize the content and advertising you see.
Visit our Privacy Policy to learn more. By continuing to use the site, you agree to this use of cookies and data.
  • In Lithuania
  • List of Countries
  • For 7 days
  • Water Temperature
  • Weather Map
  • Weather Widgets
  • user-avatar
    Login

    Hourly Weather Albany

    Today, 2 June, Tuesday

    Time Temperature Precipitation Wind Pressure Humidity
    00:00 +13°C° 0 mm 1 mps 767 mmHg 82%
    01:00 +13°C° 0 mm 1 mps 767 mmHg 84%
    02:00 +13°C° 0 mm 1 mps 766 mmHg 86%
    03:00 +12°C° 0 mm 1 mps 766 mmHg 87%
    04:00 +12°C° 0 mm 1 mps 767 mmHg 87%
    05:00 +12°C° 0 mm 1 mps 767 mmHg 88%
    06:00 +12°C° 0 mm 1 mps 767 mmHg 88%
    07:00 +12°C° 0 mm 1 mps 767 mmHg 87%
    08:00 +12°C° 0 mm 1 mps 767 mmHg 86%
    09:00 +14°C° 0 mm 1 mps 767 mmHg 80%
    10:00 +16°C° 0 mm 1 mps 767 mmHg 73%
    11:00 +17°C° 0 mm 2 mps 767 mmHg 67%
    12:00 +18°C° 0 mm 2 mps 766 mmHg 65%
    13:00 +18°C° 0 mm 2 mps 766 mmHg 63%
    14:00 +19°C° 0 mm 2 mps 765 mmHg 62%
    15:00 +18°C° 0 mm 3 mps 765 mmHg 67%
    16:00 +17°C° 0 mm 3 mps 765 mmHg 72%
    17:00 +16°C° 0 mm 3 mps 765 mmHg 77%
    18:00 +14°C° 0 mm 3 mps 766 mmHg 81%
    19:00 +13°C° 0 mm 3 mps 766 mmHg 85%
    20:00 +13°C° 0 mm 3 mps 766 mmHg 90%
    21:00 +13°C° 0 mm 3 mps 766 mmHg 90%
    22:00 +12°C° 0 mm 4 mps 766 mmHg 90%
    23:00 +12°C° 0 mm 4 mps 766 mmHg 89%

    Tomorrow, 3 June, Wednesday

    Time Temperature Precipitation Wind Pressure Humidity
    00:00 +12°C° 0 mm 4 mps 766 mmHg 90%
    01:00 +12°C° 0 mm 4 mps 766 mmHg 90%
    02:00 +12°C° 0 mm 4 mps 765 mmHg 91%
    03:00 +12°C° 0 mm 4 mps 765 mmHg 88%
    04:00 +11°C° 0 mm 3 mps 765 mmHg 85%
    05:00 +11°C° 0 mm 3 mps 765 mmHg 82%
    06:00 +12°C° 0 mm 3 mps 765 mmHg 79%
    07:00 +12°C° 0 mm 3 mps 765 mmHg 76%
    08:00 +12°C° 0 mm 3 mps 765 mmHg 73%
    09:00 +14°C° 0 mm 3 mps 765 mmHg 66%
    10:00 +18°C° 0 mm 4 mps 764 mmHg 60%
    11:00 +20°C° 0 mm 4 mps 764 mmHg 53%
    12:00 +21°C° 0 mm 4 mps 764 mmHg 52%
    13:00 +21°C° 0 mm 4 mps 763 mmHg 51%
    14:00 +22°C° 0 mm 4 mps 762 mmHg 50%
    15:00 +20°C° 0 mm 3 mps 763 mmHg 55%
    16:00 +19°C° 0 mm 2 mps 763 mmHg 60%
    17:00 +18°C° 0 mm 2 mps 763 mmHg 66%
    18:00 +17°C° 0 mm 2 mps 763 mmHg 67%
    19:00 +16°C° 0 mm 2 mps 763 mmHg 68%
    20:00 +15°C° 0 mm 2 mps 763 mmHg 70%
    21:00 +14°C° 0 mm 3 mps 763 mmHg 70%
    22:00 +13°C° 0 mm 3 mps 763 mmHg 71%
    23:00 +13°C° 0 mm 3 mps 763 mmHg 72%

    Day after tomorrow, 4 June, Thursday

    Time Temperature Precipitation Wind Pressure Humidity
    00:00 +13°C° 0 mm 3 mps 763 mmHg 72%
    01:00 +13°C° 0 mm 3 mps 763 mmHg 72%
    02:00 +12°C° 0 mm 3 mps 762 mmHg 72%
    03:00 +12°C° 0 mm 3 mps 762 mmHg 72%
    04:00 +12°C° 0 mm 3 mps 762 mmHg 72%
    05:00 +13°C° 0 mm 2 mps 762 mmHg 73%
    06:00 +13°C° 0 mm 2 mps 763 mmHg 71%
    07:00 +14°C° 0 mm 2 mps 763 mmHg 69%
    08:00 +15°C° 0 mm 2 mps 763 mmHg 67%
    09:00 +14°C° 0.1 mm 3 mps 763 mmHg 69%
    10:00 +14°C° 0.1 mm 3 mps 763 mmHg 71%
    11:00 +16°C° 0.1 mm 3 mps 763 mmHg 74%
    12:00 +17°C° 0 mm 3 mps 763 mmHg 71%
    13:00 +18°C° 0 mm 2 mps 763 mmHg 68%
    14:00 +19°C° 0 mm 2 mps 763 mmHg 65%
    15:00 +18°C° 0 mm 2 mps 763 mmHg 70%
    16:00 +17°C° 0 mm 2 mps 763 mmHg 75%
    17:00 +16°C° 0 mm 2 mps 763 mmHg 80%
    18:00 +16°C° 0 mm 2 mps 764 mmHg 84%
    19:00 +15°C° 0 mm 2 mps 764 mmHg 87%
    20:00 +14°C° 0 mm 2 mps 765 mmHg 91%
    21:00 +14°C° 0 mm 2 mps 765 mmHg 91%
    22:00 +14°C° 0 mm 2 mps 765 mmHg 92%
    23:00 +14°C° 0 mm 2 mps 765 mmHg 92%

    5 June, Friday

    Time Temperature Precipitation Wind Pressure Humidity
    00:00 +14°C° 0 mm 2 mps 765 mmHg 92%
    01:00 +13°C° 0 mm 2 mps 765 mmHg 92%
    02:00 +13°C° 0 mm 1 mps 765 mmHg 93%
    03:00 +13°C° 0 mm 1 mps 765 mmHg 93%
    04:00 +13°C° 0 mm 1 mps 765 mmHg 93%
    05:00 +12°C° 0 mm 1 mps 766 mmHg 93%
    06:00 +13°C° 0 mm 1 mps 766 mmHg 93%
    07:00 +13°C° 0 mm 1 mps 766 mmHg 93%
    08:00 +13°C° 0 mm 1 mps 767 mmHg 93%
    09:00 +15°C° 0 mm 1 mps 767 mmHg 86%
    10:00 +16°C° 0 mm 0 mps 767 mmHg 79%
    11:00 +18°C° 0 mm 0 mps 767 mmHg 72%
    12:00 +20°C° 0 mm 1 mps 766 mmHg 69%
    13:00 +20°C° 0 mm 1 mps 766 mmHg 67%
    14:00 +20°C° 0 mm 2 mps 765 mmHg 65%
    15:00 +18°C° 0 mm 2 mps 766 mmHg 72%
    16:00 +17°C° 0 mm 3 mps 766 mmHg 80%
    17:00 +16°C° 0 mm 3 mps 766 mmHg 87%
    18:00 +14°C° 0 mm 3 mps 766 mmHg 89%
    19:00 +14°C° 0 mm 3 mps 766 mmHg 91%
    20:00 +13°C° 0 mm 3 mps 766 mmHg 93%
    21:00 +13°C° 0 mm 3 mps 766 mmHg 93%
    22:00 +13°C° 0 mm 3 mps 766 mmHg 94%
    23:00 +13°C° 0 mm 3 mps 766 mmHg 94%

    6 June, Saturday

    Time Temperature Precipitation Wind Pressure Humidity
    00:00 +12°C° 0 mm 3 mps 765 mmHg 94%
    01:00 +12°C° 0 mm 3 mps 765 mmHg 94%
    02:00 +12°C° 0 mm 3 mps 765 mmHg 94%
    03:00 +12°C° 0 mm 3 mps 765 mmHg 94%
    04:00 +11°C° 0 mm 3 mps 765 mmHg 94%
    05:00 +11°C° 0 mm 3 mps 764 mmHg 94%
    06:00 +12°C° 0 mm 3 mps 764 mmHg 93%
    07:00 +12°C° 0 mm 3 mps 764 mmHg 92%
    08:00 +12°C° 0 mm 3 mps 764 mmHg 90%
    09:00 +13°C° 0 mm 3 mps 764 mmHg 84%
    10:00 +16°C° 0 mm 3 mps 764 mmHg 78%
    11:00 +18°C° 0 mm 3 mps 764 mmHg 71%
    12:00 +18°C° 0 mm 4 mps 763 mmHg 68%
    13:00 +19°C° 0 mm 4 mps 762 mmHg 65%
    14:00 +20°C° 0 mm 4 mps 762 mmHg 61%
    15:00 +19°C° 0 mm 4 mps 762 mmHg 66%
    16:00 +18°C° 0 mm 4 mps 761 mmHg 70%
    17:00 +17°C° 0 mm 3 mps 761 mmHg 75%
    18:00 +17°C° 0 mm 3 mps 761 mmHg 76%
    19:00 +15°C° 0 mm 4 mps 762 mmHg 78%
    20:00 +14°C° 0 mm 4 mps 762 mmHg 79%
    21:00 +15°C° 0 mm 4 mps 761 mmHg 77%
    22:00 +16°C° 0 mm 3 mps 761 mmHg 74%
    23:00 +16°C° 0 mm 3 mps 761 mmHg 72%

    7 June, Sunday

    Time Temperature Precipitation Wind Pressure Humidity
    00:00 +16°C° 0.1 mm 3 mps 761 mmHg 73%
    01:00 +15°C° 0.1 mm 2 mps 760 mmHg 74%
    02:00 +15°C° 0.1 mm 2 mps 760 mmHg 76%
    03:00 +15°C° 0.8 mm 2 mps 760 mmHg 81%
    04:00 +15°C° 0.8 mm 2 mps 760 mmHg 87%
    05:00 +14°C° 0.8 mm 2 mps 760 mmHg 93%
    06:00 +14°C° 0.1 mm 2 mps 760 mmHg 93%
    07:00 +15°C° 0.1 mm 2 mps 761 mmHg 94%
    08:00 +14°C° 0.1 mm 3 mps 761 mmHg 95%
    09:00 +16°C° 0.1 mm 3 mps 761 mmHg 91%
    10:00 +17°C° 0.1 mm 3 mps 761 mmHg 87%
    11:00 +18°C° 0.1 mm 3 mps 761 mmHg 84%
    12:00 +18°C° 0.1 mm 4 mps 761 mmHg 82%
    13:00 +18°C° 0.1 mm 4 mps 761 mmHg 81%
    14:00 +18°C° 0.1 mm 4 mps 760 mmHg 79%
    15:00 +18°C° 0 mm 4 mps 761 mmHg 83%
    16:00 +17°C° 0 mm 3 mps 761 mmHg 86%
    17:00 +16°C° 0 mm 3 mps 761 mmHg 89%
    18:00 +14°C° 0 mm 3 mps 762 mmHg 91%
    19:00 +14°C° 0 mm 3 mps 762 mmHg 92%
    20:00 +13°C° 0 mm 3 mps 763 mmHg 93%
    21:00 +14°C° 0 mm 2 mps 763 mmHg 92%
    22:00 +14°C° 0 mm 2 mps 763 mmHg 91%
    23:00 +15°C° 0 mm 2 mps 763 mmHg 90%
    Show more